TimeAKDT,TemperatureF,Dew PointF,Humidity,Sea Level PressureIn,VisibilityMPH,Wind Direction,Wind SpeedMPH,Gust SpeedMPH,PrecipitationIn,Events,Conditions,WindDirDegrees,DateUTC
12:16 AM,57.2,48.2,72,29.88,10.0,SSW,5.8,-,N/A,,Clear,210,2013-06-27 08:16:00
12:36 AM,57.2,48.2,72,29.89,10.0,South,3.5,-,N/A,,Clear,190,2013-06-27 08:36:00
12:56 AM,57.2,48.2,72,29.89,10.0,SSW,4.6,-,N/A,,Clear,210,2013-06-27 08:56:00
1:16 AM,57.2,48.2,72,29.90,10.0,SSW,4.6,-,N/A,,Clear,200,2013-06-27 09:16:00
1:36 AM,57.2,48.2,72,29.90,10.0,South,4.6,-,N/A,,Clear,190,2013-06-27 09:36:00
1:56 AM,55.4,48.2,77,29.91,10.0,SW,3.5,-,N/A,,Clear,220,2013-06-27 09:56:00
2:16 AM,55.4,48.2,77,29.91,10.0,Calm,Calm,-,N/A,,Clear,0,2013-06-27 10:16:00
2:36 AM,55.4,48.2,77,29.92,10.0,SW,3.5,-,N/A,,Clear,220,2013-06-27 10:36:00
2:56 AM,53.6,48.2,82,29.92,10.0,Calm,Calm,-,N/A,,Clear,0,2013-06-27 10:56:00
3:16 AM,53.6,48.2,82,29.92,10.0,SSW,3.5,-,N/A,,Clear,210,2013-06-27 11:16:00
3:36 AM,53.6,48.2,82,29.92,10.0,Calm,Calm,-,N/A,,Clear,0,2013-06-27 11:36:00
3:56 AM,53.6,48.2,82,29.93,10.0,SW,4.6,-,N/A,,Clear,220,2013-06-27 11:56:00
4:16 AM,51.8,48.2,88,29.94,10.0,SW,8.1,-,N/A,,Clear,220,2013-06-27 12:16:00
4:36 AM,51.8,48.2,88,29.95,9.0,SSW,5.8,-,N/A,,Mostly Cloudy,210,2013-06-27 12:36:00
4:56 AM,51.8,48.2,88,29.95,8.0,Calm,Calm,-,N/A,,Overcast,0,2013-06-27 12:56:00
5:16 AM,51.8,48.2,88,29.95,9.0,SSW,3.5,-,N/A,,Overcast,210,2013-06-27 13:16:00
5:36 AM,51.8,48.2,88,29.96,7.0,West,6.9,-,N/A,,Overcast,260,2013-06-27 13:36:00
5:56 AM,51.8,48.2,88,29.97,8.0,WSW,3.5,-,N/A,,Overcast,240,2013-06-27 13:56:00
6:16 AM,51.8,48.2,88,29.98,10.0,SW,6.9,-,N/A,,Overcast,230,2013-06-27 14:16:00
6:36 AM,51.8,48.2,88,29.98,10.0,SW,5.8,-,N/A,,Overcast,220,2013-06-27 14:36:00
6:56 AM,53.6,48.2,82,29.98,10.0,WSW,5.8,-,N/A,,Overcast,250,2013-06-27 14:56:00
7:16 AM,53.6,48.2,82,29.99,10.0,SW,6.9,-,N/A,,Overcast,220,2013-06-27 15:16:00
7:36 AM,53.6,48.2,82,29.99,10.0,WSW,9.2,-,N/A,,Overcast,240,2013-06-27 15:36:00
7:56 AM,51.8,48.2,88,30.00,10.0,WSW,6.9,-,N/A,,Overcast,240,2013-06-27 15:56:00
8:16 AM,51.8,48.2,88,30.01,9.0,WSW,8.1,-,N/A,,Overcast,250,2013-06-27 16:16:00
8:36 AM,51.8,48.2,88,30.01,10.0,SW,5.8,-,N/A,,Overcast,220,2013-06-27 16:36:00
8:56 AM,51.8,46.4,82,30.01,10.0,SW,6.9,-,N/A,,Overcast,230,2013-06-27 16:56:00
9:16 AM,53.6,48.2,82,30.01,10.0,WSW,11.5,17.3,N/A,,Overcast,240,2013-06-27 17:16:00
9:36 AM,53.6,48.2,82,30.02,10.0,SW,8.1,-,N/A,,Overcast,220,2013-06-27 17:36:00
9:56 AM,53.6,46.4,77,30.02,10.0,South,5.8,-,N/A,,Overcast,180,2013-06-27 17:56:00
10:16 AM,53.6,48.2,82,30.02,10.0,South,5.8,-,N/A,,Overcast,190,2013-06-27 18:16:00
10:36 AM,53.6,48.2,82,30.02,10.0,West,4.6,-,N/A,,Overcast,260,2013-06-27 18:36:00
10:56 AM,55.4,48.2,77,30.01,10.0,WSW,5.8,-,N/A,,Overcast,250,2013-06-27 18:56:00
11:16 AM,57.2,50.0,77,30.01,10.0,West,8.1,-,N/A,,Mostly Cloudy,280,2013-06-27 19:16:00
11:36 AM,59.0,50.0,72,30.01,10.0,WSW,4.6,-,N/A,,Clear,250,2013-06-27 19:36:00
11:56 AM,60.8,51.8,72,30.01,10.0,West,5.8,-,N/A,,Clear,270,2013-06-27 19:56:00
12:16 PM,60.8,51.8,72,30.01,10.0,West,8.1,-,N/A,,Clear,280,2013-06-27 20:16:00
12:36 PM,60.8,51.8,72,30.01,10.0,WNW,5.8,-,N/A,,Clear,290,2013-06-27 20:36:00
12:56 PM,62.6,51.8,68,30.01,10.0,WNW,8.1,-,N/A,,Scattered Clouds,290,2013-06-27 20:56:00
1:16 PM,62.6,51.8,68,30.01,10.0,WNW,10.4,-,N/A,,Mostly Cloudy,290,2013-06-27 21:16:00
1:36 PM,60.8,51.8,72,30.02,10.0,WNW,12.7,-,N/A,,Overcast,300,2013-06-27 21:36:00
1:56 PM,60.8,51.8,72,30.02,10.0,West,12.7,-,N/A,,Mostly Cloudy,270,2013-06-27 21:56:00
2:16 PM,60.8,50.0,68,30.02,10.0,West,12.7,-,N/A,,Clear,280,2013-06-27 22:16:00
2:36 PM,60.8,50.0,68,30.02,10.0,WNW,12.7,-,N/A,,Clear,290,2013-06-27 22:36:00
2:56 PM,60.8,51.8,72,30.02,10.0,West,8.1,-,N/A,,Clear,280,2013-06-27 22:56:00
3:16 PM,62.6,51.8,68,30.01,10.0,WNW,9.2,-,N/A,,Clear,290,2013-06-27 23:16:00
3:36 PM,62.6,51.8,68,30.01,10.0,NW,10.4,-,N/A,,Clear,320,2013-06-27 23:36:00
3:56 PM,62.6,51.8,68,30.01,10.0,West,11.5,-,N/A,,Clear,270,2013-06-27 23:56:00
4:16 PM,62.6,51.8,68,30.01,10.0,West,13.8,-,N/A,,Clear,280,2013-06-28 00:16:00
4:36 PM,62.6,51.8,68,30.01,10.0,West,11.5,-,N/A,,Clear,280,2013-06-28 00:36:00
4:56 PM,60.8,51.8,72,30.02,10.0,West,11.5,-,N/A,,Clear,270,2013-06-28 00:56:00
5:16 PM,60.8,51.8,72,30.02,10.0,WNW,11.5,-,N/A,,Clear,290,2013-06-28 01:16:00
5:36 PM,60.8,48.2,63,30.02,10.0,WNW,12.7,-,N/A,,Clear,290,2013-06-28 01:36:00
5:56 PM,59.0,50.0,72,30.02,10.0,WNW,12.7,-,N/A,,Clear,300,2013-06-28 01:56:00
6:16 PM,59.0,50.0,72,30.02,10.0,WNW,10.4,-,N/A,,Clear,290,2013-06-28 02:16:00
6:36 PM,59.0,50.0,72,30.02,10.0,WNW,9.2,-,N/A,,Clear,290,2013-06-28 02:36:00
6:56 PM,60.8,50.0,68,30.02,10.0,WNW,9.2,-,N/A,,Clear,290,2013-06-28 02:56:00
7:16 PM,60.8,50.0,68,30.02,10.0,West,11.5,-,N/A,,Scattered Clouds,260,2013-06-28 03:16:00
7:36 PM,60.8,51.8,72,30.02,10.0,WSW,12.7,17.3,N/A,,Partly Cloudy,250,2013-06-28 03:36:00
7:56 PM,60.8,50.0,68,30.03,10.0,West,13.8,-,N/A,,Clear,270,2013-06-28 03:56:00
8:16 PM,60.8,48.2,63,30.03,10.0,West,9.2,-,N/A,,Clear,270,2013-06-28 04:16:00
8:36 PM,59.0,50.0,72,30.03,10.0,West,12.7,-,N/A,,Clear,270,2013-06-28 04:36:00
8:56 PM,59.0,50.0,72,30.04,10.0,WSW,10.4,-,N/A,,Clear,250,2013-06-28 04:56:00
9:16 PM,59.0,50.0,72,30.04,10.0,WSW,8.1,-,N/A,,Clear,250,2013-06-28 05:16:00
9:36 PM,59.0,48.2,67,30.04,10.0,WSW,9.2,-,N/A,,Clear,250,2013-06-28 05:36:00
9:56 PM,59.0,48.2,67,30.04,10.0,West,5.8,-,N/A,,Clear,270,2013-06-28 05:56:00
10:36 PM,57.2,48.2,72,30.05,10.0,Calm,Calm,-,N/A,,Clear,0,2013-06-28 06:36:00
10:56 PM,57.2,48.2,72,30.06,10.0,West,4.6,-,N/A,,Clear,260,2013-06-28 06:56:00
11:16 PM,57.2,48.2,72,30.06,10.0,Calm,Calm,-,N/A,,Clear,0,2013-06-28 07:16:00
11:36 PM,55.4,48.2,77,30.07,10.0,SW,4.6,-,N/A,,Mostly Cloudy,230,2013-06-28 07:36:00
11:56 PM,55.4,48.2,77,30.08,10.0,WSW,3.5,-,N/A,,Scattered Clouds,250,2013-06-28 07:56:00